K4OBI Weather Reports


Display with metric or nautical units.
time (UTC)temp
F
wind
direction
speed
MPH
gust
MPH
rain 1hr
in
rain 24hr
in
rain mn
in
humidity
%
barometer
mb
20260504141238 67 210 1.0 6.0 0.00 0.00 0.00 50 1019.4
20260504141136 66 153 1.0 4.0 0.00 0.00 0.00 49 1019.4
20260504141036 66 205 1.0 4.0 0.00 0.00 0.00 47 1019.4
20260504140933 66 210 1.0 4.0 0.00 0.00 0.00 50 1019.3
20260504140827 66 252 1.0 4.0 0.00 0.00 0.00 51 1019.3
20260504140727 66 134 1.0 4.0 0.00 0.00 0.00 49 1019.3
20260504140628 65 152 1.0 4.0 0.00 0.00 0.00 51 1019.3
20260504140528 65 82 1.0 5.0 0.00 0.00 0.00 50 1019.3
20260504140428 65 27 1.0 5.0 0.00 0.00 0.00 49 1019.3
20260504140356 65 134 2.0 5.0 0.00 0.00 0.00 50 1019.4
20260504140223 65 310 2.0 5.0 0.00 0.00 0.00 51 1019.4
20260504140122 65 38 2.0 5.0 0.00 0.00 0.00 49 1019.4
20260504130822 55 169 1.0 4.0 0.00 0.00 0.00 72 1019.4
20260504130715 55 184 1.0 4.0 0.00 0.00 0.00 73 1019.5
20260504130616 55 233 1.0 4.0 0.00 0.00 0.00 73 1019.5
20260504130518 55 250 1.0 4.0 0.00 0.00 0.00 72 1019.4
20260504130501 54 217 1.0 4.0 0.00 0.00 0.00 73 1019.3
20260504130316 54 289 1.0 4.0 0.00 0.00 0.00 72 1019.3
20260504130246 54 253 1.0 4.0 0.00 0.00 0.00 72 1019.3
20260504130112 53 148 1.0 3.0 0.00 0.00 0.00 73 1019.4
20260504120306 46 197 1.0 5.0 0.00 0.00 0.00 85 1019.3
20260504120204 46 197 1.0 5.0 0.00 0.00 0.00 85 1019.3
20260504110702 42 27 0.0 2.0 0.00 0.00 0.00 92 1019.1
20260504110634 42 27 0.0 2.0 0.00 0.00 0.00 92 1019.0
20260504110503 42 27 0.0 2.0 0.00 0.00 0.00 92 1019.0
20260504110403 41 27 0.0 0.0 0.00 0.00 0.00 93 1019.0
20260504110303 41 27 0.0 0.0 0.00 0.00 0.00 93 1018.9
20260504110204 41 27 0.0 0.0 0.00 0.00 0.00 93 1019.0
20260504110103 41 27 0.0 0.0 0.00 0.00 0.00 93 1018.9
20260504100548 39 27 0.0 1.0 0.00 0.00 0.00 91 1018.8
20260504100450 39 27 0.0 0.0 0.00 0.00 0.00 91 1018.8
20260504100349 39 27 0.0 0.0 0.00 0.00 0.00 91 1018.8
20260504100250 39 27 0.0 0.0 0.00 0.00 0.00 91 1018.9
20260504100150 39 27 0.0 0.0 0.00 0.00 0.00 91 1018.8
20260504090118 41 28 0.0 0.0 0.00 0.00 0.00 88 1018.8
20260504081923 42 28 0.0 1.0 0.00 0.00 0.00 85 1019.0
20260504081823 42 28 0.0 1.0 0.00 0.00 0.00 85 1019.0
20260504081723 42 28 0.0 1.0 0.00 0.00 0.00 85 1019.1
20260504081619 42 28 0.0 2.0 0.00 0.00 0.00 85 1019.1
20260504081516 42 28 0.0 3.0 0.00 0.00 0.00 85 1019.0
20260504081416 42 28 1.0 3.0 0.00 0.00 0.00 85 1019.0
20260504081316 42 28 1.0 3.0 0.00 0.00 0.00 85 1019.0
20260504081216 42 28 1.0 3.0 0.00 0.00 0.00 85 1019.0
20260504081120 42 28 1.0 3.0 0.00 0.00 0.00 85 1019.0
20260504081017 42 28 1.0 3.0 0.00 0.00 0.00 85 1019.0
20260504081001 42 28 1.0 3.0 0.00 0.00 0.00 85 1019.0
20260504080813 42 28 1.0 3.0 0.00 0.00 0.00 85 1018.9
20260504080711 42 28 1.0 3.0 0.00 0.00 0.00 84 1018.9
20260504080607 42 28 1.0 3.0 0.00 0.00 0.00 84 1019.0
20260504080509 42 21 0.0 2.0 0.00 0.00 0.00 84 1019.0
20260504080453 42 13 0.0 2.0 0.00 0.00 0.00 84 1019.0
20260504080305 42 354 0.0 2.0 0.00 0.00 0.00 84 1019.0
20260504080205 43 266 0.0 0.0 0.00 0.00 0.00 84 1019.0
20260504080104 43 256 0.0 0.0 0.00 0.00 0.00 84 1018.9
20260504070354 49 256 0.0 1.0 0.00 0.00 0.00 68 1019.0
20260504070153 49 256 0.0 1.0 0.00 0.00 0.00 67 1019.0
20260504060241 51 281 0.0 2.0 0.00 0.00 0.00 64 1019.0
20260504060140 51 281 0.0 2.0 0.00 0.00 0.00 64 1019.0
20260504050741 53 211 0.0 2.0 0.00 0.00 0.00 58 1019.2
20260504050638 53 211 0.0 2.0 0.00 0.00 0.00 58 1019.2
20260504050538 53 211 0.0 2.0 0.00 0.00 0.00 58 1019.3
20260504050437 53 210 0.0 2.0 0.00 0.00 0.00 57 1019.3
20260504050335 53 215 0.0 2.0 0.00 0.00 0.00 58 1019.3
20260504050230 53 215 0.0 2.0 0.00 0.00 0.00 58 1019.2
20260504050129 53 215 0.0 2.0 0.00 0.00 0.00 58 1019.2
20260504045928 53 274 0.0 2.0 0.00 0.00 0.00 58 1019.3
20260504045828 53 209 0.0 2.0 0.00 0.00 0.00 58 1019.3
20260504045723 53 227 0.0 0.0 0.00 0.00 0.00 59 1019.3
20260504045623 53 227 0.0 0.0 0.00 0.00 0.00 58 1019.3
20260504045523 53 227 0.0 0.0 0.00 0.00 0.00 58 1019.2
20260504045423 53 227 0.0 0.0 0.00 0.00 0.00 59 1019.2
20260504045322 53 227 0.0 1.0 0.00 0.00 0.00 58 1019.3
20260504045218 53 227 0.0 1.0 0.00 0.00 0.00 58 1019.3
20260504045117 53 227 0.0 1.0 0.00 0.00 0.00 58 1019.2
20260504045016 53 227 0.0 1.0 0.00 0.00 0.00 59 1019.3
20260504044915 53 227 0.0 1.0 0.00 0.00 0.00 58 1019.2
20260504044837 53 227 0.0 1.0 0.00 0.00 0.00 59 1019.2
20260504044712 53 227 0.0 1.0 0.00 0.00 0.00 57 1019.2
20260504044618 53 227 0.0 1.0 0.00 0.00 0.00 57 1019.2
20260504044559 53 227 0.0 2.0 0.00 0.00 0.00 57 1019.3
20260504044412 53 210 0.0 2.0 0.00 0.00 0.00 57 1019.2
20260504044310 53 221 0.0 2.0 0.00 0.00 0.00 57 1019.2
20260504044211 53 221 0.0 2.0 0.00 0.00 0.00 58 1019.2
20260504044111 53 221 0.0 2.0 0.00 0.00 0.00 57 1019.3
20260504044054 53 220 0.0 2.0 0.00 0.00 0.00 57 1019.3
20260504043907 53 220 0.0 2.0 0.00 0.00 0.00 57 1019.2
20260504043805 53 220 0.0 2.0 0.00 0.00 0.00 57 1019.2
20260504043700 53 220 0.0 2.0 0.00 0.00 0.00 57 1019.2
20260504043605 53 150 0.0 2.0 0.00 0.00 0.00 57 1019.3
20260504043548 53 144 0.0 2.0 0.00 0.00 0.00 58 1019.3
20260504043400 53 226 0.0 1.0 0.00 0.00 0.00 57 1019.3
20260504043259 53 268 0.0 1.0 0.00 0.00 0.00 58 1019.3
20260504043154 53 268 0.0 1.0 0.00 0.00 0.00 57 1019.3
20260504043053 53 257 0.0 1.0 0.00 0.00 0.00 57 1019.3
20260504042853 53 253 0.0 1.0 0.00 0.00 0.00 57 1019.2
20260504042752 53 253 0.0 1.0 0.00 0.00 0.00 57 1019.2
20260504042652 53 253 0.0 1.0 0.00 0.00 0.00 57 1019.2
20260504042549 53 253 0.0 1.0 0.00 0.00 0.00 57 1019.2
20260504042451 53 253 0.0 1.0 0.00 0.00 0.00 57 1019.2
20260504042348 53 253 0.0 1.0 0.00 0.00 0.00 57 1019.2
20260504042247 53 253 0.0 1.0 0.00 0.00 0.00 57 1019.3
20260504042147 53 253 0.0 1.0 0.00 0.00 0.00 57 1019.2
20260504042048 53 261 0.0 1.0 0.00 0.00 0.00 57 1019.2
20260504042031 53 261 0.0 1.0 0.00 0.00 0.00 56 1019.2
20260504041842 53 261 0.0 1.0 0.00 0.00 0.00 57 1019.1
20260504041741 53 261 0.0 1.0 0.00 0.00 0.00 56 1019.2
20260504041634 53 261 0.0 1.0 0.00 0.00 0.00 57 1019.2
20260504041535 54 261 0.0 1.0 0.00 0.00 0.00 56 1019.2
20260504041335 54 261 0.0 1.0 0.00 0.00 0.00 56 1019.2
20260504041235 54 261 0.0 1.0 0.00 0.00 0.00 56 1019.2
20260504041135 54 261 0.0 1.0 0.00 0.00 0.00 56 1019.2
20260504041031 54 261 0.0 1.0 0.00 0.00 0.00 55 1019.1
20260504040929 54 261 0.0 1.0 0.00 0.00 0.00 54 1019.2
20260504040831 54 261 0.0 1.0 0.00 0.00 0.00 54 1019.1
20260504040730 54 261 0.0 1.0 0.00 0.00 0.00 55 1019.1
20260504040625 54 261 0.0 1.0 0.00 0.00 0.00 55 1019.0
20260504040522 54 263 0.0 1.0 0.00 0.00 0.00 54 1019.1
20260504040322 55 263 0.0 2.0 0.00 0.00 0.00 54 1019.1
20260504040222 55 263 0.0 2.0 0.00 0.00 0.00 55 1019.2
20260504040118 55 267 0.0 3.0 0.00 0.00 0.00 54 1019.1
20260504040018 55 228 1.0 3.0 0.00 0.00 0.00 54 1019.1
20260504035916 55 228 1.0 3.0 0.00 0.00 0.00 54 1019.1
20260504035820 55 228 1.0 3.0 0.00 0.00 0.00 54 1019.0
20260504035718 55 228 1.0 3.0 0.00 0.00 0.00 54 1019.2
20260504035614 55 228 1.0 3.0 0.00 0.00 0.00 53 1019.1
20260504035518 55 228 1.0 3.0 0.00 0.00 0.00 53 1019.1
20260504035502 55 221 1.0 3.0 0.00 0.00 0.00 54 1019.0
20260504035312 55 146 1.0 3.0 0.00 0.00 0.00 53 1019.1
20260504035229 55 216 1.0 3.0 0.00 0.00 0.00 54 1019.0
20260504035210 54 219 1.0 3.0 0.00 0.00 0.00 54 1019.1
20260504035012 54 161 1.0 3.0 0.00 0.00 0.00 54 1019.1
20260504034956 54 174 0.0 3.0 0.00 0.00 0.00 55 1019.1
20260504034807 54 219 0.0 3.0 0.00 0.00 0.00 54 1019.0
20260504034706 54 221 0.0 1.0 0.00 0.00 0.00 55 1019.0
20260504034601 54 220 0.0 2.0 0.00 0.00 0.00 55 1019.1
20260504034500 54 209 0.0 2.0 0.00 0.00 0.00 54 1019.1
20260504034300 54 208 0.0 2.0 0.00 0.00 0.00 55 1019.1
20260504034159 54 208 0.0 2.0 0.00 0.00 0.00 55 1019.1
20260504034055 54 208 0.0 2.0 0.00 0.00 0.00 55 1019.0
20260504033953 54 209 0.0 2.0 0.00 0.00 0.00 55 1019.1
20260504033853 54 208 0.0 2.0 0.00 0.00 0.00 55 1019.1
20260504033754 53 207 0.0 2.0 0.00 0.00 0.00 55 1019.2
20260504033654 53 303 0.0 2.0 0.00 0.00 0.00 55 1019.1
20260504033552 53 262 0.0 1.0 0.00 0.00 0.00 56 1019.1
20260504033450 53 262 0.0 1.0 0.00 0.00 0.00 56 1019.1
20260504033350 53 262 0.0 1.0 0.00 0.00 0.00 55 1019.1
20260504033250 53 262 0.0 1.0 0.00 0.00 0.00 56 1019.2
20260504033148 53 39 0.0 1.0 0.00 0.00 0.00 55 1019.2
20260504033041 53 263 0.0 1.0 0.00 0.00 0.00 55 1019.1
20260504032941 53 263 0.0 1.0 0.00 0.00 0.00 55 1019.2
20260504032842 53 265 0.0 1.0 0.00 0.00 0.00 55 1019.2
20260504032742 53 248 0.0 1.0 0.00 0.00 0.00 55 1019.1
20260504032642 53 248 0.0 1.0 0.00 0.00 0.00 56 1019.2
20260504032535 53 212 0.0 1.0 0.00 0.00 0.00 55 1019.1
20260504032435 53 212 0.0 1.0 0.00 0.00 0.00 55 1019.1
20260504032235 53 212 0.0 1.0 0.00 0.00 0.00 55 1019.1
20260504032136 53 212 0.0 1.0 0.00 0.00 0.00 55 1019.1
20260504032030 53 212 0.0 1.0 0.00 0.00 0.00 55 1019.1
20260504031929 53 212 0.0 1.0 0.00 0.00 0.00 54 1019.1
20260504031731 53 212 0.0 1.0 0.00 0.00 0.00 54 1019.2
20260504031630 53 212 0.0 1.0 0.00 0.00 0.00 54 1019.2
20260504031525 53 212 0.0 1.0 0.00 0.00 0.00 54 1019.3
20260504031422 53 212 0.0 1.0 0.00 0.00 0.00 54 1019.3
20260504031223 54 212 0.0 1.0 0.00 0.00 0.00 54 1019.3
20260504031123 54 212 0.0 1.0 0.00 0.00 0.00 54 1019.3
20260504031020 54 212 0.0 1.0 0.00 0.00 0.00 54 1019.3
20260504030920 54 212 0.0 1.0 0.00 0.00 0.00 54 1019.3
20260504030822 54 212 0.0 1.0 0.00 0.00 0.00 54 1019.3
20260504030718 54 212 0.0 1.0 0.00 0.00 0.00 54 1019.2
20260504030617 54 212 0.0 1.0 0.00 0.00 0.00 54 1019.2
20260504030517 54 212 0.0 2.0 0.00 0.00 0.00 54 1019.1
20260504030416 54 212 0.0 2.0 0.00 0.00 0.00 53 1019.1
20260504030315 54 212 0.0 2.0 0.00 0.00 0.00 53 1019.1
20260504030214 54 212 0.0 2.0 0.00 0.00 0.00 53 1019.1
20260504030112 54 212 0.0 2.0 0.00 0.00 0.00 53 1019.0
20260504030009 54 212 0.0 2.0 0.00 0.00 0.00 53 1019.0
20260504025907 54 213 0.0 2.0 0.00 0.00 0.00 53 1019.0
20260504025808 54 213 1.0 2.0 0.00 0.00 0.00 53 1019.1
20260504025706 54 240 1.0 2.0 0.00 0.00 0.00 53 1019.0
20260504025604 54 219 1.0 3.0 0.00 0.00 0.00 53 1019.0
20260504025459 54 214 1.0 3.0 0.00 0.00 0.00 53 1019.1
20260504025358 54 216 1.0 3.0 0.00 0.00 0.00 53 1019.0
20260504025258 54 225 1.0 3.0 0.00 0.00 0.00 54 1019.0
20260504025157 54 225 1.0 3.0 0.00 0.00 0.00 54 1019.0
20260504025058 54 225 1.0 3.0 0.00 0.00 0.00 54 1019.0
20260504024956 54 225 1.0 3.0 0.00 0.00 0.00 54 1019.0
20260504024917 54 225 1.0 3.0 0.00 0.00 0.00 54 1019.0
20260504024752 54 216 1.0 3.0 0.00 0.00 0.00 54 1019.1
20260504024653 53 213 1.0 3.0 0.00 0.00 0.00 54 1019.0
20260504024552 53 266 1.0 3.0 0.00 0.00 0.00 55 1019.0
20260504024445 53 267 1.0 3.0 0.00 0.00 0.00 55 1019.0
20260504024345 53 167 0.0 2.0 0.00 0.00 0.00 55 1019.1
20260504024245 53 167 0.0 2.0 0.00 0.00 0.00 55 1019.1
20260504024146 52 238 0.0 2.0 0.00 0.00 0.00 55 1019.1
20260504024045 52 252 0.0 2.0 0.00 0.00 0.00 56 1019.1
20260504023940 52 247 0.0 1.0 0.00 0.00 0.00 56 1019.2
20260504023840 52 231 0.0 1.0 0.00 0.00 0.00 56 1019.1
20260504023739 52 231 0.0 1.0 0.00 0.00 0.00 57 1019.1
20260504023640 52 231 0.0 1.0 0.00 0.00 0.00 56 1019.2
20260504023539 52 224 0.0 1.0 0.00 0.00 0.00 57 1019.2
20260504023439 52 224 0.0 1.0 0.00 0.00 0.00 57 1019.2
20260504023336 52 224 0.0 1.0 0.00 0.00 0.00 57 1019.2
20260504023237 51 224 0.0 1.0 0.00 0.00 0.00 57 1019.2
20260504023134 51 224 0.0 1.0 0.00 0.00 0.00 57 1019.2
20260504023033 51 224 0.0 1.0 0.00 0.00 0.00 58 1019.2
20260504022928 51 224 0.0 1.0 0.00 0.00 0.00 58 1019.2
20260504022827 51 218 0.0 1.0 0.00 0.00 0.00 58 1019.2
20260504022727 51 218 0.0 0.0 0.00 0.00 0.00 59 1019.2
20260504022627 51 218 0.0 0.0 0.00 0.00 0.00 58 1019.2
20260504022528 51 218 0.0 0.0 0.00 0.00 0.00 58 1019.3
20260504022424 52 218 0.0 0.0 0.00 0.00 0.00 58 1019.2
20260504022324 52 218 0.0 0.0 0.00 0.00 0.00 58 1019.2
20260504022223 52 218 0.0 0.0 0.00 0.00 0.00 58 1019.2
20260504022123 52 218 0.0 0.0 0.00 0.00 0.00 58 1019.2
20260504022023 52 218 0.0 0.0 0.00 0.00 0.00 58 1019.2
20260504021923 52 218 0.0 0.0 0.00 0.00 0.00 58 1019.2
20260504021824 52 218 0.0 0.0 0.00 0.00 0.00 58 1019.2
20260504021724 52 218 0.0 0.0 0.00 0.00 0.00 58 1019.1
20260504021622 52 218 0.0 0.0 0.00 0.00 0.00 58 1019.2
20260504021522 52 218 0.0 0.0 0.00 0.00 0.00 58 1019.2
20260504021423 52 218 0.0 0.0 0.00 0.00 0.00 57 1019.1
20260504021321 52 218 0.0 0.0 0.00 0.00 0.00 57 1019.1
20260504021222 52 219 0.0 0.0 0.00 0.00 0.00 57 1019.1
20260504021120 52 218 0.0 0.0 0.00 0.00 0.00 56 1019.1
20260504021018 52 218 0.0 0.0 0.00 0.00 0.00 57 1019.0
20260504020918 52 219 0.0 0.0 0.00 0.00 0.00 57 1019.1
20260504020849 52 218 0.0 0.0 0.00 0.00 0.00 56 1019.0
20260504020720 52 218 0.0 0.0 0.00 0.00 0.00 57 1019.1
20260504020618 52 218 0.0 0.0 0.00 0.00 0.00 57 1019.0
20260504020516 52 218 0.0 0.0 0.00 0.00 0.00 57 1019.0
20260504020419 52 218 0.0 0.0 0.00 0.00 0.00 57 1018.9
20260504020402 52 218 0.0 0.0 0.00 0.00 0.00 57 1019.1
20260504020213 52 218 0.0 0.0 0.00 0.00 0.00 56 1019.0
20260504020112 53 219 0.0 0.0 0.00 0.00 0.00 56 1019.0
20260504020011 53 218 0.0 0.0 0.00 0.00 0.00 56 1018.9
20260504015912 53 218 0.0 1.0 0.00 0.00 0.00 56 1019.0
20260504015814 53 218 0.0 1.0 0.00 0.00 0.00 56 1018.9
20260504015705 53 219 0.0 1.0 0.00 0.00 0.00 56 1018.9
20260504015605 53 218 0.0 1.0 0.00 0.00 0.00 56 1018.9
20260504015504 53 218 0.0 1.0 0.00 0.00 0.00 56 1018.8
20260504015406 53 219 0.0 1.0 0.00 0.00 0.00 56 1018.8
20260504015306 53 218 0.0 1.0 0.00 0.00 0.00 56 1018.8
20260504015202 53 218 0.0 1.0 0.00 0.00 0.00 56 1018.8
20260504015102 53 219 0.0 1.0 0.00 0.00 0.00 56 1018.8
20260504015002 53 218 0.0 1.0 0.00 0.00 0.00 56 1018.8
20260504014901 53 218 0.0 1.0 0.00 0.00 0.00 56 1018.7
20260504014800 53 218 0.0 1.0 0.00 0.00 0.00 56 1018.8
20260504014700 53 219 0.0 1.0 0.00 0.00 0.00 56 1018.7
20260504014557 53 218 0.0 0.0 0.00 0.00 0.00 56 1018.7
20260504014458 53 218 0.0 0.0 0.00 0.00 0.00 56 1018.7
20260504014356 53 218 0.0 0.0 0.00 0.00 0.00 56 1018.6
20260504014253 53 219 0.0 0.0 0.00 0.00 0.00 56 1018.7
20260504014149 53 218 0.0 0.0 0.00 0.00 0.00 56 1018.7
20260504014047 53 219 0.0 0.0 0.00 0.00 0.00 55 1018.6
20260504013947 53 218 0.0 0.0 0.00 0.00 0.00 55 1018.6
20260504013910 53 218 0.0 0.0 0.00 0.00 0.00 55 1018.6
20260504013851 53 218 0.0 0.0 0.00 0.00 0.00 55 1018.5
20260504013645 53 218 0.0 0.0 0.00 0.00 0.00 55 1018.5
20260504013544 53 218 0.0 0.0 0.00 0.00 0.00 55 1018.5
20260504013342 53 218 0.0 0.0 0.00 0.00 0.00 56 1018.5
20260504013138 53 219 0.0 0.0 0.00 0.00 0.00 55 1018.4
20260504013037 53 218 0.0 0.0 0.00 0.00 0.00 55 1018.5
20260504012937 54 218 0.0 0.0 0.00 0.00 0.00 55 1018.5
20260504012836 54 218 0.0 0.0 0.00 0.00 0.00 55 1018.4
20260504012629 54 218 0.0 0.0 0.00 0.00 0.00 54 1018.5
20260504012530 54 218 0.0 0.0 0.00 0.00 0.00 54 1018.5
20260504012429 54 218 0.0 0.0 0.00 0.00 0.00 54 1018.4
20260504012329 54 218 0.0 0.0 0.00 0.00 0.00 54 1018.5
20260504012124 54 218 0.0 0.0 0.00 0.00 0.00 54 1018.5
20260504012020 54 219 0.0 0.0 0.00 0.00 0.00 54 1018.5
20260504011921 54 219 0.0 0.0 0.00 0.00 0.00 54 1018.5
20260504011822 54 218 0.0 0.0 0.00 0.00 0.00 54 1018.5
20260504011620 54 218 0.0 1.0 0.00 0.00 0.00 53 1018.4
20260504011518 54 219 0.0 1.0 0.00 0.00 0.00 53 1018.4
20260504011420 55 218 0.0 1.0 0.00 0.00 0.00 53 1018.4
20260504011340 55 218 0.0 1.0 0.00 0.00 0.00 53 1018.4
20260504011320 55 218 0.0 1.0 0.00 0.00 0.00 53 1018.5
20260504011116 55 218 0.0 1.0 0.00 0.00 0.00 53 1018.4
20260504011012 55 218 0.0 1.0 0.00 0.00 0.00 52 1018.4
20260504010914 55 218 0.0 1.0 0.00 0.00 0.00 52 1018.4
20260504010811 55 218 0.0 1.0 0.00 0.00 0.00 52 1018.4
20260504010607 55 218 0.0 1.0 0.00 0.00 0.00 52 1018.4
20260504010507 55 218 0.0 1.0 0.00 0.00 0.00 51 1018.4
20260504010408 55 218 0.0 1.0 0.00 0.00 0.00 52 1018.4
20260504010305 55 218 0.0 0.0 0.00 0.00 0.00 51 1018.4
20260504010002 55 218 0.0 0.0 0.00 0.00 0.00 51 1018.4
20260504005902 55 218 0.0 1.0 0.00 0.00 0.00 51 1018.4
20260504005803 56 218 0.0 1.0 0.00 0.00 0.00 51 1018.4
20260504005747 56 218 0.0 1.0 0.00 0.00 0.00 51 1018.4
20260504005559 56 218 0.0 1.0 0.00 0.00 0.00 51 1018.3
20260504005529 56 218 0.0 1.0 0.00 0.00 0.00 51 1018.4
20260504005357 56 218 0.0 1.0 0.00 0.00 0.00 51 1018.4
20260504005316 56 218 0.0 1.0 0.00 0.00 0.00 51 1018.4
20260504005256 56 219 0.0 1.0 0.00 0.00 0.00 51 1018.4
20260504005056 56 219 0.0 1.0 0.00 0.00 0.00 51 1018.4
20260504004953 56 218 0.0 1.0 0.00 0.00 0.00 51 1018.4
20260504004850 56 218 0.0 1.0 0.00 0.00 0.00 51 1018.3
20260504004752 56 218 0.0 1.0 0.00 0.00 0.00 50 1018.3
20260504004550 56 218 0.0 1.0 0.00 0.00 0.00 50 1018.3
20260504004447 56 218 1.0 1.0 0.00 0.00 0.00 51 1018.3
20260504004346 56 218 1.0 1.0 0.00 0.00 0.00 50 1018.3
20260504004246 56 218 1.0 1.0 0.00 0.00 0.00 50 1018.2
20260504004043 56 218 1.0 2.0 0.00 0.00 0.00 50 1018.3
20260504003942 56 218 1.0 2.0 0.00 0.00 0.00 50 1018.3
20260504003839 56 208 0.0 2.0 0.00 0.00 0.00 50 1018.3
20260504003739 56 208 0.0 2.0 0.00 0.00 0.00 50 1018.3
20260504003539 56 208 0.0 2.0 0.00 0.00 0.00 50 1018.2
20260504003440 56 208 0.0 2.0 0.00 0.00 0.00 50 1018.3
20260504003339 56 208 0.0 2.0 0.00 0.00 0.00 50 1018.2
20260504003237 56 208 0.0 2.0 0.00 0.00 0.00 49 1018.3
20260504003136 57 208 0.0 2.0 0.00 0.00 0.00 49 1018.2
20260504003035 57 216 0.0 1.0 0.00 0.00 0.00 49 1018.2
20260504002933 57 219 0.0 1.0 0.00 0.00 0.00 49 1018.2
20260504002830 57 219 0.0 1.0 0.00 0.00 0.00 50 1018.2
20260504002732 57 219 0.0 1.0 0.00 0.00 0.00 49 1018.2
20260504002530 57 219 0.0 1.0 0.00 0.00 0.00 48 1018.2
20260504002431 57 219 0.0 1.0 0.00 0.00 0.00 48 1018.1
20260504002331 57 219 0.0 1.0 0.00 0.00 0.00 48 1018.2
20260504002231 58 219 0.0 1.0 0.00 0.00 0.00 48 1018.2
20260504002131 58 219 0.0 1.0 0.00 0.00 0.00 48 1018.2
20260504002031 58 219 0.0 1.0 0.00 0.00 0.00 48 1018.1
20260504001932 58 219 0.0 1.0 0.00 0.00 0.00 48 1018.1
20260504001826 58 220 0.0 1.0 0.00 0.00 0.00 47 1018.0
20260504001726 58 226 0.0 1.0 0.00 0.00 0.00 47 1018.1
20260504001525 58 226 0.0 1.0 0.00 0.00 0.00 46 1018.1
20260504001426 58 233 0.0 1.0 0.00 0.00 0.00 46 1018.0
20260504001325 58 233 0.0 1.0 0.00 0.00 0.00 46 1017.9
20260504001224 58 243 0.0 1.0 0.00 0.00 0.00 46 1018.0
20260504001021 59 243 0.0 1.0 0.00 0.00 0.00 46 1017.8
20260504000920 59 222 0.0 1.0 0.00 0.00 0.00 45 1017.9
20260504000819 59 218 0.0 1.0 0.00 0.00 0.00 46 1018.0
20260504000718 59 217 0.0 1.0 0.00 0.00 0.00 45 1017.9
20260504000615 59 217 0.0 1.0 0.00 0.00 0.00 45 1018.0
20260504000516 59 259 0.0 1.0 0.00 0.00 0.00 45 1018.0
20260504000416 59 260 0.0 1.0 0.00 0.00 0.00 44 1017.9
20260504000309 59 261 0.0 1.0 0.00 0.00 0.00 45 1017.9
20260504000208 59 261 0.0 2.0 0.00 0.00 0.00 44 1018.0
20260504000109 60 261 0.0 2.0 0.00 0.00 0.00 44 1018.0
20260504000007 60 269 0.0 2.0 0.00 0.00 0.00 44 1018.0
20260503235906 60 208 0.0 2.0 0.00 0.00 0.00 43 1018.0
20260503235806 60 208 1.0 2.0 0.00 0.00 0.00 43 1018.0
20260503235706 60 208 1.0 3.0 0.00 0.00 0.00 43 1018.0
20260503235605 60 208 1.0 3.0 0.00 0.00 0.00 43 1017.9
20260503235504 60 208 1.0 3.0 0.00 0.00 0.00 43 1017.9
20260503235403 60 175 1.0 3.0 0.00 0.00 0.00 43 1018.0
20260503235304 60 164 1.0 3.0 0.00 0.00 0.00 42 1017.9
20260503235204 60 197 1.0 3.0 0.00 0.00 0.00 42 1018.0
20260503235102 61 198 1.0 3.0 0.00 0.00 0.00 42 1017.9
20260503235004 61 198 1.0 3.0 0.00 0.00 0.00 42 1018.1
20260503234902 61 207 1.0 3.0 0.00 0.00 0.00 41 1018.0
20260503234805 61 202 1.0 3.0 0.00 0.00 0.00 41 1018.0
20260503234702 61 190 1.0 3.0 0.00 0.00 0.00 41 1017.9
20260503234604 61 223 1.0 3.0 0.00 0.00 0.00 41 1018.1
20260503234504 61 207 1.0 3.0 0.00 0.00 0.00 40 1018.0
20260503234404 61 207 1.0 3.0 0.00 0.00 0.00 40 1018.0
20260503234303 61 252 1.0 3.0 0.00 0.00 0.00 40 1018.0
20260503234234 61 252 1.0 3.0 0.00 0.00 0.00 40 1018.0
20260503234103 61 220 1.0 3.0 0.00 0.00 0.00 39 1018.0
20260503234004 61 224 1.0 3.0 0.00 0.00 0.00 39 1018.0
20260503233859 62 217 1.0 3.0 0.00 0.00 0.00 39 1018.0
20260503233759 62 218 1.0 3.0 0.00 0.00 0.00 39 1018.0
20260503233658 62 210 1.0 4.0 0.00 0.00 0.00 39 1018.0
20260503233558 62 210 1.0 4.0 0.00 0.00 0.00 39 1018.0
20260503233500 62 219 1.0 4.0 0.00 0.00 0.00 39 1018.1
20260503233358 62 229 1.0 4.0 0.00 0.00 0.00 39 1018.0
20260503233259 62 239 1.0 4.0 0.00 0.00 0.00 38 1018.0
20260503233204 62 227 1.0 4.0 0.00 0.00 0.00 38 1018.0
20260503233059 62 214 1.0 4.0 0.00 0.00 0.00 38 1018.0
20260503233000 62 162 1.0 4.0 0.00 0.00 0.00 38 1018.1
20260503232900 62 152 1.0 4.0 0.00 0.00 0.00 38 1018.1
20260503232758 62 230 1.0 4.0 0.00 0.00 0.00 38 1018.0
20260503232658 62 216 1.0 4.0 0.00 0.00 0.00 37 1018.1
20260503232600 62 217 2.0 4.0 0.00 0.00 0.00 37 1018.1
20260503232459 62 210 2.0 4.0 0.00 0.00 0.00 37 1018.0
20260503232359 63 198 2.0 4.0 0.00 0.00 0.00 37 1018.0
20260503232300 63 212 2.0 4.0 0.00 0.00 0.00 36 1018.0
20260503232159 63 224 2.0 4.0 0.00 0.00 0.00 36 1017.9
20260503232100 63 142 2.0 4.0 0.00 0.00 0.00 36 1018.1
20260503231954 63 212 2.0 4.0 0.00 0.00 0.00 36 1018.1
20260503231856 63 224 3.0 7.0 0.00 0.00 0.00 36 1018.0
20260503231754 63 214 3.0 7.0 0.00 0.00 0.00 36 1018.0
20260503231734 63 204 3.0 7.0 0.00 0.00 0.00 36 1018.1
20260503231554 63 234 3.0 7.0 0.00 0.00 0.00 36 1018.1
20260503231455 63 231 3.0 7.0 0.00 0.00 0.00 36 1018.0
20260503231355 63 143 3.0 7.0 0.00 0.00 0.00 35 1018.0
20260503231255 63 217 3.0 7.0 0.00 0.00 0.00 35 1018.1
20260503231154 63 148 3.0 7.0 0.00 0.00 0.00 35 1018.0
20260503231054 63 219 3.0 7.0 0.00 0.00 0.00 35 1018.0
20260503230955 64 240 3.0 7.0 0.00 0.00 0.00 35 1018.1
20260503230854 64 169 2.0 7.0 0.00 0.00 0.00 35 1018.1
20260503230754 64 228 2.0 5.0 0.00 0.00 0.00 34 1018.2
20260503230656 64 204 2.0 5.0 0.00 0.00 0.00 34 1018.1
20260503230554 64 210 2.0 5.0 0.00 0.00 0.00 34 1018.1
20260503230456 64 184 2.0 5.0 0.00 0.00 0.00 34 1018.1
20260503230354 64 205 1.0 5.0 0.00 0.00 0.00 35 1018.1
20260503230256 64 196 1.0 4.0 0.00 0.00 0.00 34 1018.0
20260503230155 64 113 1.0 5.0 0.00 0.00 0.00 34 1018.1
20260503230050 65 196 1.0 5.0 0.00 0.00 0.00 33 1018.0
20260503225950 65 239 1.0 5.0 0.00 0.00 0.00 34 1017.9
20260503225850 65 219 1.0 5.0 0.00 0.00 0.00 35 1018.1
20260503225750 65 210 1.0 5.0 0.00 0.00 0.00 34 1017.9
20260503225650 65 226 1.0 5.0 0.00 0.00 0.00 35 1017.9
20260503225550 65 203 1.0 5.0 0.00 0.00 0.00 33 1017.8
20260503225452 65 203 1.0 5.0 0.00 0.00 0.00 32 1018.0
20260503225351 65 200 1.0 5.0 0.00 0.00 0.00 32 1017.9
20260503225251 65 167 1.0 5.0 0.00 0.00 0.00 33 1017.9
20260503225231 65 194 1.0 3.0 0.00 0.00 0.00 34 1017.8
20260503225051 66 158 1.0 3.0 0.00 0.00 0.00 32 1017.9
20260503224951 66 211 1.0 4.0 0.00 0.00 0.00 32 1017.9
20260503224851 66 219 1.0 4.0 0.00 0.00 0.00 32 1017.8
20260503224750 66 203 1.0 4.0 0.00 0.00 0.00 31 1017.9
20260503224651 66 280 1.0 5.0 0.00 0.00 0.00 30 1017.9
20260503224550 67 10 1.0 5.0 0.00 0.00 0.00 30 1017.9
20260503224451 67 10 1.0 5.0 0.00 0.00 0.00 30 1017.8
20260503224352 67 318 1.0 5.0 0.00 0.00 0.00 30 1017.9
20260503224252 67 318 1.0 5.0 0.00 0.00 0.00 29 1017.9
20260503224146 67 283 1.0 5.0 0.00 0.00 0.00 29 1017.8
20260503224046 68 274 1.0 5.0 0.00 0.00 0.00 30 1017.9
20260503223947 68 207 1.0 5.0 0.00 0.00 0.00 30 1018.0
20260503223848 68 290 1.0 5.0 0.00 0.00 0.00 30 1017.9
20260503223749 68 205 1.0 6.0 0.00 0.00 0.00 29 1017.8
20260503223731 68 278 1.0 6.0 0.00 0.00 0.00 30 1017.9
20260503223548 68 223 1.0 6.0 0.00 0.00 0.00 30 1017.9
20260503223446 68 168 1.0 6.0 0.00 0.00 0.00 31 1017.9
20260503223346 68 157 1.0 6.0 0.00 0.00 0.00 29 1018.0
20260503223247 68 163 1.0 6.0 0.00 0.00 0.00 31 1017.9
20260503223147 68 230 1.0 6.0 0.00 0.00 0.00 31 1017.9
20260503223046 68 332 1.0 6.0 0.00 0.00 0.00 30 1017.9
20260503222947 68 281 1.0 6.0 0.00 0.00 0.00 31 1017.9
20260503222846 68 197 1.0 6.0 0.00 0.00 0.00 32 1017.9
20260503222747 68 171 2.0 7.0 0.00 0.00 0.00 33 1017.9
20260503222646 68 310 2.0 7.0 0.00 0.00 0.00 31 1017.9
20260503222548 68 310 2.0 7.0 0.00 0.00 0.00 31 1017.9
20260503222447 68 284 2.0 7.0 0.00 0.00 0.00 32 1018.0
20260503222348 68 252 2.0 7.0 0.00 0.00 0.00 30 1018.0
20260503222243 68 269 2.0 7.0 0.00 0.00 0.00 30 1018.0
20260503222144 68 239 2.0 7.0 0.00 0.00 0.00 30 1017.9
20260503222042 68 273 2.0 7.0 0.00 0.00 0.00 31 1017.9
20260503221942 68 222 2.0 7.0 0.00 0.00 0.00 30 1018.0
20260503221838 68 131 2.0 7.0 0.00 0.00 0.00 29 1018.1
20260503221736 68 188 2.0 5.0 0.00 0.00 0.00 31 1018.1
20260503221637 68 199 2.0 5.0 0.00 0.00 0.00 31 1018.1
20260503221534 68 218 2.0 7.0 0.00 0.00 0.00 29 1018.1
20260503221433 68 220 2.0 7.0 0.00 0.00 0.00 30 1018.1
20260503221333 68 129 2.0 7.0 0.00 0.00 0.00 31 1018.2
20260503221228 68 203 2.0 7.0 0.00 0.00 0.00 30 1018.1
20260503221130 68 204 2.0 7.0 0.00 0.00 0.00 30 1018.1
20260503221029 68 156 2.0 7.0 0.00 0.00 0.00 30 1018.2
20260503220928 68 166 2.0 7.0 0.00 0.00 0.00 30 1018.2
20260503220827 68 282 1.0 7.0 0.00 0.00 0.00 30 1018.2
20260503220743 68 150 1.0 7.0 0.00 0.00 0.00 29 1018.2
20260503220723 69 230 1.0 7.0 0.00 0.00 0.00 30 1018.2
20260503220522 69 205 1.0 3.0 0.00 0.00 0.00 31 1018.2
20260503220421 68 54 1.0 3.0 0.00 0.00 0.00 31 1018.3
20260503220320 68 347 1.0 7.0 0.00 0.00 0.00 30 1018.3
20260503220216 68 302 2.0 7.0 0.00 0.00 0.00 30 1018.3
20260503220116 68 196 2.0 8.0 0.00 0.00 0.00 30 1018.4
20260503220014 68 193 2.0 8.0 0.00 0.00 0.00 31 1018.3
20260503215914 68 189 2.0 8.0 0.00 0.00 0.00 33 1018.4
20260503215815 67 282 3.0 8.0 0.00 0.00 0.00 31 1018.5
20260503215712 67 162 3.0 10.0 0.00 0.00 0.00 30 1018.5
20260503215608 67 224 4.0 10.0 0.00 0.00 0.00 30 1018.5
20260503215508 67 189 4.0 10.0 0.00 0.00 0.00 30 1018.5
20260503215409 67 228 3.0 10.0 0.00 0.00 0.00 31 1018.4
20260503215306 67 202 3.0 10.0 0.00 0.00 0.00 31 1018.4
20260503215203 67 205 3.0 10.0 0.00 0.00 0.00 31 1018.4
20260503215101 67 222 3.0 10.0 0.00 0.00 0.00 31 1018.4
20260503215002 67 200 3.0 10.0 0.00 0.00 0.00 31 1018.5
20260503214902 67 293 3.0 10.0 0.00 0.00 0.00 30 1018.5
20260503214801 67 191 3.0 10.0 0.00 0.00 0.00 29 1018.5
20260503214653 68 309 2.0 9.0 0.00 0.00 0.00 30 1018.6
20260503214552 68 204 2.0 9.0 0.00 0.00 0.00 30 1018.5
20260503214454 68 253 2.0 9.0 0.00 0.00 0.00 33 1018.6
20260503214354 67 316 2.0 9.0 0.00 0.00 0.00 31 1018.6
20260503214252 67 356 2.0 9.0 0.00 0.00 0.00 31 1018.6
20260503214144 68 32 3.0 9.0 0.00 0.00 0.00 31 1018.7
20260503214045 68 333 3.0 9.0 0.00 0.00 0.00 31 1018.7
20260503213946 68 289 2.0 9.0 0.00 0.00 0.00 30 1018.7
20260503213845 68 182 2.0 9.0 0.00 0.00 0.00 30 1018.7
20260503213745 68 199 2.0 5.0 0.00 0.00 0.00 31 1018.7
20260503213640 68 287 2.0 5.0 0.00 0.00 0.00 31 1018.8
20260503213540 68 212 2.0 7.0 0.00 0.00 0.00 31 1018.7
20260503213438 68 176 2.0 7.0 0.00 0.00 0.00 32 1018.7
20260503213338 67 289 2.0 7.0 0.00 0.00 0.00 31 1018.7
20260503213237 67 191 2.0 7.0 0.00 0.00 0.00 32 1018.7
20260503213132 67 219 2.0 7.0 0.00 0.00 0.00 31 1018.7
20260503213032 67 221 2.0 7.0 0.00 0.00 0.00 31 1018.6
20260503212930 67 309 2.0 8.0 0.00 0.00 0.00 32 1018.8
20260503212830 67 319 2.0 8.0 0.00 0.00 0.00 30 1018.8
20260503212731 67 319 3.0 10.0 0.00 0.00 0.00 31 1018.8
20260503212626 67 288 3.0 10.0 0.00 0.00 0.00 32 1018.8
20260503212526 67 209 4.0 10.0 0.00 0.00 0.00 34 1018.8
20260503212425 67 195 4.0 10.0 0.00 0.00 0.00 30 1018.8
20260503212326 67 312 4.0 10.0 0.00 0.00 0.00 30 1018.8
20260503212224 67 297 4.0 10.0 0.00 0.00 0.00 30 1018.8
20260503212122 67 198 4.0 10.0 0.00 0.00 0.00 32 1018.8
20260503212018 67 215 4.0 10.0 0.00 0.00 0.00 31 1018.7
20260503211919 67 119 4.0 10.0 0.00 0.00 0.00 30 1018.8
20260503211819 67 228 3.0 10.0 0.00 0.00 0.00 30 1018.7
20260503211718 67 157 3.0 10.0 0.00 0.00 0.00 32 1018.7
20260503211612 67 138 2.0 9.0 0.00 0.00 0.00 32 1018.7
20260503211514 67 214 2.0 8.0 0.00 0.00 0.00 30 1018.7
20260503211414 68 166 2.0 6.0 0.00 0.00 0.00 30 1018.7
20260503211312 68 323 2.0 6.0 0.00 0.00 0.00 30 1018.7
20260503211212 68 230 2.0 7.0 0.00 0.00 0.00 29 1018.7
20260503211108 68 259 2.0 7.0 0.00 0.00 0.00 31 1018.8
20260503211008 68 178 2.0 8.0 0.00 0.00 0.00 31 1018.7
20260503210909 68 295 3.0 8.0 0.00 0.00 0.00 30 1018.8
20260503210808 68 297 3.0 8.0 0.00 0.00 0.00 31 1018.7
20260503210729 67 127 3.0 8.0 0.00 0.00 0.00 32 1018.7
20260503210602 67 130 3.0 8.0 0.00 0.00 0.00 31 1018.9
20260503210501 67 258 3.0 8.0 0.00 0.00 0.00 32 1018.8
20260503210401 67 258 3.0 8.0 0.00 0.00 0.00 32 1018.8
20260503210301 67 198 3.0 8.0 0.00 0.00 0.00 31 1018.8
20260503210201 67 168 2.0 8.0 0.00 0.00 0.00 31 1018.8
20260503210056 68 247 2.0 8.0 0.00 0.00 0.00 29 1018.8
20260503205956 68 185 2.0 6.0 0.00 0.00 0.00 32 1018.9
20260503205856 68 212 1.0 6.0 0.00 0.00 0.00 31 1018.8
20260503205755 68 244 2.0 6.0 0.00 0.00 0.00 32 1018.8
20260503205655 68 288 2.0 6.0 0.00 0.00 0.00 32 1018.8
20260503205552 68 300 2.0 6.0 0.00 0.00 0.00 31 1018.7
20260503205452 67 278 2.0 7.0 0.00 0.00 0.00 33 1018.8
20260503205352 67 195 2.0 9.0 0.00 0.00 0.00 34 1018.8
20260503205252 67 236 3.0 9.0 0.00 0.00 0.00 31 1018.8
20260503205225 67 236 3.0 9.0 0.00 0.00 0.00 31 1018.7
20260503205046 67 296 3.0 9.0 0.00 0.00 0.00 31 1018.7
20260503204943 67 244 4.0 10.0 0.00 0.00 0.00 29 1018.8
20260503204843 67 214 4.0 10.0 0.00 0.00 0.00 30 1018.8
20260503204643 67 229 4.0 10.0 0.00 0.00 0.00 30 1018.8
20260503204538 67 255 4.0 10.0 0.00 0.00 0.00 31 1018.8
20260503204436 67 234 3.0 10.0 0.00 0.00 0.00 31 1018.8
20260503204336 67 207 3.0 10.0 0.00 0.00 0.00 31 1018.8
20260503204242 67 115 3.0 10.0 0.00 0.00 0.00 31 1018.8
20260503204224 67 271 3.0 10.0 0.00 0.00 0.00 31 1018.8
20260503204030 67 161 3.0 7.0 0.00 0.00 0.00 31 1018.8
20260503203930 67 214 3.0 8.0 0.00 0.00 0.00 32 1018.9
20260503203831 67 20 3.0 8.0 0.00 0.00 0.00 30 1018.8
20260503203741 67 136 3.0 8.0 0.00 0.00 0.00 31 1018.8
20260503203723 67 209 3.0 8.0 0.00 0.00 0.00 30 1018.8
20260503203524 67 166 3.0 8.0 0.00 0.00 0.00 30 1018.8
20260503203423 67 218 2.0 8.0 0.00 0.00 0.00 31 1018.9
20260503203323 67 288 2.0 8.0 0.00 0.00 0.00 30 1018.8
20260503203222 67 204 2.0 8.0 0.00 0.00 0.00 30 1018.9
20260503203017 67 212 2.0 8.0 0.00 0.00 0.00 29 1018.9
20260503202916 67 155 3.0 8.0 0.00 0.00 0.00 30 1019.0
20260503202816 67 355 3.0 8.0 0.00 0.00 0.00 32 1019.0
20260503202717 67 151 3.0 8.0 0.00 0.00 0.00 30 1019.0
20260503202510 66 199 3.0 8.0 0.00 0.00 0.00 30 1019.0
20260503202410 66 293 3.0 8.0 0.00 0.00 0.00 30 1019.1
20260503202308 66 257 3.0 8.0 0.00 0.00 0.00 29 1019.0
20260503202208 66 170 3.0 9.0 0.00 0.00 0.00 28 1019.0
20260503202109 66 259 3.0 9.0 0.00 0.00 0.00 29 1019.0
20260503202003 66 331 3.0 9.0 0.00 0.00 0.00 29 1019.1
20260503201903 66 200 3.0 9.0 0.00 0.00 0.00 29 1019.1
20260503201803 66 174 3.0 9.0 0.00 0.00 0.00 28 1019.1
20260503201703 66 195 3.0 9.0 0.00 0.00 0.00 31 1019.0
20260503201602 66 327 3.0 9.0 0.00 0.00 0.00 31 1019.1
20260503201501 66 254 3.0 9.0 0.00 0.00 0.00 29 1019.2
20260503201442 66 281 3.0 9.0 0.00 0.00 0.00 30 1019.1
20260503201257 66 250 2.0 7.0 0.00 0.00 0.00 29 1019.1
20260503201224 66 356 3.0 7.0 0.00 0.00 0.00 28 1019.2
20260503201057 66 289 2.0 7.0 0.00 0.00 0.00 29 1019.2
20260503200950 66 260 2.0 7.0 0.00 0.00 0.00 31 1019.2
20260503200850 66 110 2.0 7.0 0.00 0.00 0.00 29 1019.1
20260503200753 66 158 2.0 7.0 0.00 0.00 0.00 30 1019.2
20260503200652 66 233 2.0 7.0 0.00 0.00 0.00 28 1019.4
20260503200551 67 257 2.0 7.0 0.00 0.00 0.00 28 1019.4
20260503200449 67 211 2.0 7.0 0.00 0.00 0.00 29 1019.4
20260503200349 67 240 2.0 7.0 0.00 0.00 0.00 28 1019.4
20260503200248 67 198 2.0 7.0 0.00 0.00 0.00 30 1019.4
20260503200146 67 349 2.0 7.0 0.00 0.00 0.00 30 1019.4
20260503200044 67 229 2.0 6.0 0.00 0.00 0.00 30 1019.4
20260503195939 67 107 2.0 6.0 0.00 0.00 0.00 31 1019.5
20260503195838 66 229 2.0 6.0 0.00 0.00 0.00 30 1019.5
20260503195740 66 192 2.0 6.0 0.00 0.00 0.00 30 1019.5
20260503195639 66 210 2.0 6.0 0.00 0.00 0.00 30 1019.5
20260503195539 66 274 2.0 6.0 0.00 0.00 0.00 32 1019.5
20260503195432 66 55 2.0 5.0 0.00 0.00 0.00 29 1019.5
20260503195331 66 22 2.0 5.0 0.00 0.00 0.00 30 1019.6
20260503195233 66 255 2.0 5.0 0.00 0.00 0.00 32 1019.6
20260503195137 66 233 2.0 5.0 0.00 0.00 0.00 32 1019.5
20260503195033 66 173 2.0 5.0 0.00 0.00 0.00 29 1019.6
20260503194927 66 188 2.0 5.0 0.00 0.00 0.00 30 1019.6
20260503194825 66 198 2.0 5.0 0.00 0.00 0.00 30 1019.4
20260503194728 66 239 2.0 5.0 0.00 0.00 0.00 31 1019.5
20260503194627 66 93 2.0 5.0 0.00 0.00 0.00 30 1019.5
20260503194527 66 300 2.0 8.0 0.00 0.00 0.00 32 1019.5
20260503194423 66 189 2.0 8.0 0.00 0.00 0.00 31 1019.5
20260503194322 66 141 2.0 8.0 0.00 0.00 0.00 32 1019.5
20260503194231 65 215 3.0 8.0 0.00 0.00 0.00 30 1019.5
20260503194214 65 210 3.0 8.0 0.00 0.00 0.00 31 1019.6
20260503194021 66 169 3.0 8.0 0.00 0.00 0.00 32 1019.5
20260503193916 66 49 3.0 8.0 0.00 0.00 0.00 33 1019.6
20260503193815 66 51 3.0 8.0 0.00 0.00 0.00 30 1019.6
20260503193714 66 300 3.0 8.0 0.00 0.00 0.00 32 1019.5
20260503193616 66 4 3.0 8.0 0.00 0.00 0.00 33 1019.5
20260503193514 66 312 3.0 7.0 0.00 0.00 0.00 33 1019.6
20260503193409 66 193 3.0 7.0 0.00 0.00 0.00 35 1019.6
20260503193307 65 126 3.0 7.0 0.00 0.00 0.00 33 1019.6
20260503193210 65 198 3.0 7.0 0.00 0.00 0.00 33 1019.6
20260503193110 65 259 3.0 8.0 0.00 0.00 0.00 32 1019.6
20260503193009 65 268 3.0 8.0 0.00 0.00 0.00 32 1019.6
20260503192905 65 176 3.0 8.0 0.00 0.00 0.00 33 1019.6
20260503192804 65 203 3.0 8.0 0.00 0.00 0.00 33 1019.6
20260503192704 65 255 3.0 8.0 0.00 0.00 0.00 32 1019.5
20260503192604 65 172 3.0 8.0 0.00 0.00 0.00 33 1019.5
20260503192503 65 275 3.0 8.0 0.00 0.00 0.00 34 1019.7
20260503192357 65 284 3.0 8.0 0.00 0.00 0.00 34 1019.6
20260503192256 64 167 3.0 8.0 0.00 0.00 0.00 32 1019.6
20260503192204 64 210 3.0 8.0 0.00 0.00 0.00 31 1019.6
20260503192056 65 290 3.0 8.0 0.00 0.00 0.00 33 1019.8
20260503191957 65 194 2.0 8.0 0.00 0.00 0.00 31 1019.7
20260503191857 65 252 2.0 8.0 0.00 0.00 0.00 31 1019.7
20260503191755 65 285 2.0 8.0 0.00 0.00 0.00 31 1019.7
20260503191652 65 229 2.0 8.0 0.00 0.00 0.00 35 1019.7
20260503191551 65 73 2.0 8.0 0.00 0.00 0.00 33 1019.7
20260503191452 65 25 2.0 8.0 0.00 0.00 0.00 31 1019.7
20260503191356 65 18 2.0 8.0 0.00 0.00 0.00 30 1019.7
20260503191253 65 327 2.0 8.0 0.00 0.00 0.00 32 1019.7
20260503191152 65 45 2.0 7.0 0.00 0.00 0.00 32 1019.8
20260503191052 65 281 2.0 7.0 0.00 0.00 0.00 31 1019.8
20260503190952 65 349 2.0 7.0 0.00 0.00 0.00 29 1019.8
20260503190857 65 267 2.0 8.0 0.00 0.00 0.00 34 1019.8
20260503190753 65 220 2.0 8.0 0.00 0.00 0.00 33 1019.8
20260503190658 65 256 2.0 8.0 0.00 0.00 0.00 33 1019.8
20260503190553 65 55 2.0 8.0 0.00 0.00 0.00 32 1019.8
20260503190453 65 241 2.0 8.0 0.00 0.00 0.00 32 1019.9
20260503190355 65 147 2.0 8.0 0.00 0.00 0.00 31 1019.9
20260503190248 65 184 2.0 8.0 0.00 0.00 0.00 31 1019.9
20260503190219 65 349 2.0 8.0 0.00 0.00 0.00 31 1020.0
20260503190049 65 261 2.0 8.0 0.00 0.00 0.00 30 1019.9
20260503185948 65 30 2.0 8.0 0.00 0.00 0.00 31 1020.0
20260503185848 65 49 2.0 8.0 0.00 0.00 0.00 30 1020.0
20260503185750 65 352 2.0 8.0 0.00 0.00 0.00 30 1020.0
20260503185644 65 355 2.0 8.0 0.00 0.00 0.00 32 1020.1
20260503185544 65 266 2.0 8.0 0.00 0.00 0.00 31 1020.0
20260503185445 65 11 2.0 8.0 0.00 0.00 0.00 32 1019.9
20260503185344 65 229 2.0 8.0 0.00 0.00 0.00 31 1020.0
20260503185243 65 294 2.0 8.0 0.00 0.00 0.00 35 1020.1
20260503185139 65 274 2.0 7.0 0.00 0.00 0.00 34 1020.1
20260503185040 65 56 2.0 7.0 0.00 0.00 0.00 34 1020.0
20260503184937 64 355 2.0 7.0 0.00 0.00 0.00 36 1020.1
20260503184838 64 151 2.0 7.0 0.00 0.00 0.00 34 1020.2
20260503184737 64 192 2.0 7.0 0.00 0.00 0.00 32 1020.2
20260503184705 64 82 2.0 7.0 0.00 0.00 0.00 30 1020.2
20260503184531 64 70 2.0 7.0 0.00 0.00 0.00 32 1020.1
20260503184431 65 77 2.0 8.0 0.00 0.00 0.00 33 1020.1
20260503184331 64 170 2.0 9.0 0.00 0.00 0.00 33 1020.1
20260503184230 64 333 3.0 10.0 0.00 0.00 0.00 32 1020.2
20260503184124 64 5 3.0 10.0 0.00 0.00 0.00 32 1020.2
20260503184024 65 274 3.0 10.0 0.00 0.00 0.00 31 1020.2
20260503183925 64 52 3.0 10.0 0.00 0.00 0.00 33 1020.2
20260503183824 64 263 4.0 10.0 0.00 0.00 0.00 36 1020.3
20260503183725 64 12 4.0 10.0 0.00 0.00 0.00 33 1020.3
20260503183653 64 8 5.0 13.0 0.00 0.00 0.00 33 1020.3
20260503183519 64 278 5.0 13.0 0.00 0.00 0.00 31 1020.3
20260503183418 64 206 5.0 13.0 0.00 0.00 0.00 32 1020.3
20260503183318 64 161 5.0 13.0 0.00 0.00 0.00 31 1020.3
20260503183219 64 178 4.0 13.0 0.00 0.00 0.00 31 1020.3
20260503183115 64 203 4.0 13.0 0.00 0.00 0.00 32 1020.6
20260503183013 64 198 4.0 13.0 0.00 0.00 0.00 33 1020.3
20260503182912 63 220 4.0 13.0 0.00 0.00 0.00 33 1020.3
20260503182813 63 117 4.0 13.0 0.00 0.00 0.00 32 1020.6
20260503182713 63 242 3.0 13.0 0.00 0.00 0.00 34 1020.4
20260503182606 63 212 3.0 9.0 0.00 0.00 0.00 33 1020.4
20260503182506 63 198 3.0 9.0 0.00 0.00 0.00 33 1020.4
20260503182407 63 276 3.0 9.0 0.00 0.00 0.00 31 1020.6
20260503182306 63 53 3.0 9.0 0.00 0.00 0.00 32 1020.6
20260503182206 63 286 3.0 10.0 0.00 0.00 0.00 32 1020.7
20260503182105 63 273 3.0 10.0 0.00 0.00 0.00 33 1020.6
20260503182004 63 236 3.0 10.0 0.00 0.00 0.00 34 1020.6
20260503181910 63 74 4.0 10.0 0.00 0.00 0.00 31 1020.6
20260503181853 63 51 4.0 10.0 0.00 0.00 0.00 32 1020.7
20260503181701 63 307 4.0 10.0 0.00 0.00 0.00 31 1020.8
20260503181630 63 340 3.0 10.0 0.00 0.00 0.00 35 1020.7
20260503181453 63 155 3.0 10.0 0.00 0.00 0.00 34 1020.7
20260503181355 63 207 3.0 10.0 0.00 0.00 0.00 34 1020.7
20260503181255 63 210 3.0 10.0 0.00 0.00 0.00 35 1020.7
20260503181155 63 163 3.0 8.0 0.00 0.00 0.00 36 1020.8
20260503181049 63 169 2.0 8.0 0.00 0.00 0.00 33 1020.9
20260503180948 63 245 2.0 8.0 0.00 0.00 0.00 33 1020.8
20260503180849 63 198 2.0 8.0 0.00 0.00 0.00 33 1020.8
20260503180749 63 319 2.0 8.0 0.00 0.00 0.00 34 1020.9
20260503180649 63 302 2.0 8.0 0.00 0.00 0.00 34 1021.0
20260503180545 63 333 2.0 8.0 0.00 0.00 0.00 33 1021.0
20260503180442 63 236 2.0 8.0 0.00 0.00 0.00 34 1020.8
20260503180343 63 243 2.0 7.0 0.00 0.00 0.00 37 1021.0
20260503180241 63 63 2.0 7.0 0.00 0.00 0.00 34 1020.9
20260503180143 63 317 2.0 7.0 0.00 0.00 0.00 31 1020.9
20260503180035 63 317 2.0 7.0 0.00 0.00 0.00 32 1021.0
20260503175937 63 267 2.0 7.0 0.00 0.00 0.00 34 1021.0
20260503175852 63 349 2.0 7.0 0.00 0.00 0.00 36 1021.1
20260503175829 63 214 2.0 7.0 0.00 0.00 0.00 33 1021.0
20260503175636 63 275 2.0 7.0 0.00 0.00 0.00 36 1021.1
20260503175606 63 225 2.0 7.0 0.00 0.00 0.00 33 1021.0
20260503175435 63 358 2.0 7.0 0.00 0.00 0.00 35 1021.1
20260503175333 63 341 3.0 7.0 0.00 0.00 0.00 34 1021.1
20260503175232 63 339 2.0 7.0 0.00 0.00 0.00 36 1021.1
20260503175131 62 245 2.0 7.0 0.00 0.00 0.00 35 1021.2
20260503175024 62 261 2.0 7.0 0.00 0.00 0.00 33 1021.1
20260503174923 62 283 3.0 7.0 0.00 0.00 0.00 34 1021.1
20260503174825 62 352 3.0 7.0 0.00 0.00 0.00 33 1021.3
20260503174724 62 333 3.0 7.0 0.00 0.00 0.00 35 1021.3
20260503174626 62 268 3.0 7.0 0.00 0.00 0.00 33 1021.2
20260503174553 62 227 2.0 7.0 0.00 0.00 0.00 33 1021.2
20260503174419 62 190 2.0 7.0 0.00 0.00 0.00 38 1021.3
20260503174319 62 46 3.0 8.0 0.00 0.00 0.00 34 1021.1
20260503174220 62 346 3.0 10.0 0.00 0.00 0.00 34 1021.2
20260503174119 62 255 3.0 10.0 0.00 0.00 0.00 35 1021.2
20260503174013 62 117 2.0 10.0 0.00 0.00 0.00 34 1021.2
20260503173913 62 75 2.0 10.0 0.00 0.00 0.00 39 1021.2
20260503173813 61 71 3.0 10.0 0.00 0.00 0.00 37 1021.2
20260503173712 61 113 3.0 10.0 0.00 0.00 0.00 36 1021.2
20260503173613 61 279 3.0 10.0 0.00 0.00 0.00 34 1021.3
20260503173507 61 67 3.0 10.0 0.00 0.00 0.00 36 1021.2
20260503173406 61 76 3.0 10.0 0.00 0.00 0.00 36 1021.3
20260503173307 61 20 3.0 10.0 0.00 0.00 0.00 35 1021.2
20260503173206 62 25 3.0 9.0 0.00 0.00 0.00 35 1021.3
20260503173107 61 352 3.0 9.0 0.00 0.00 0.00 35 1021.3
20260503173035 61 221 3.0 9.0 0.00 0.00 0.00 34 1021.2
20260503172900 61 320 3.0 9.0 0.00 0.00 0.00 37 1021.2
20260503172759 61 315 3.0 9.0 0.00 0.00 0.00 35 1021.3
20260503172701 61 296 3.0 9.0 0.00 0.00 0.00 34 1021.2
20260503172601 61 186 3.0 9.0 0.00 0.00 0.00 35 1021.3
20260503172454 61 274 3.0 8.0 0.00 0.00 0.00 36 1021.3
20260503172354 62 113 2.0 8.0 0.00 0.00 0.00 34 1021.3
20260503172254 62 10 2.0 8.0 0.00 0.00 0.00 34 1021.3
20260503172155 62 236 2.0 8.0 0.00 0.00 0.00 35 1021.3
20260503172054 62 281 2.0 8.0 0.00 0.00 0.00 35 1021.2
20260503171950 62 312 2.0 7.0 0.00 0.00 0.00 38 1021.2
20260503171850 62 65 2.0 7.0 0.00 0.00 0.00 40 1021.2
20260503171750 61 269 2.0 7.0 0.00 0.00 0.00 38 1021.2
20260503171651 61 86 2.0 7.0 0.00 0.00 0.00 37 1021.2
20260503171549 61 14 2.0 7.0 0.00 0.00 0.00 37 1021.2
20260503171443 60 341 2.0 7.0 0.00 0.00 0.00 39 1021.3
20260503171342 60 53 2.0 7.0 0.00 0.00 0.00 40 1021.3
20260503171241 60 12 2.0 9.0 0.00 0.00 0.00 35 1021.2
20260503171143 60 44 3.0 9.0 0.00 0.00 0.00 35 1021.2
20260503171042 60 6 3.0 9.0 0.00 0.00 0.00 36 1021.4
20260503170938 60 58 2.0 9.0 0.00 0.00 0.00 35 1021.3
20260503170839 60 304 3.0 9.0 0.00 0.00 0.00 37 1021.3
20260503170738 60 36 3.0 9.0 0.00 0.00 0.00 35 1021.4
20260503170639 60 77 3.0 9.0 0.00 0.00 0.00 35 1021.3
20260503170549 60 40 3.0 9.0 0.00 0.00 0.00 34 1021.4
20260503170528 60 28 3.0 9.0 0.00 0.00 0.00 34 1021.4
20260503170331 60 281 3.0 9.0 0.00 0.00 0.00 35 1021.5
20260503170231 60 150 3.0 9.0 0.00 0.00 0.00 34 1021.5
20260503170130 60 43 3.0 9.0 0.00 0.00 0.00 35 1021.5
20260503160119 58 49 2.0 6.0 0.00 0.00 0.00 43 1022.5
20260503150917 55 128 3.0 8.0 0.00 0.00 0.00 48 1022.6
20260503150817 55 74 3.0 8.0 0.00 0.00 0.00 47 1022.6
20260503150709 55 46 3.0 8.0 0.00 0.00 0.00 47 1022.6
20260503150610 55 46 3.0 8.0 0.00 0.00 0.00 45 1022.6
20260503150510 55 261 3.0 10.0 0.00 0.00 0.00 44 1022.6
20260503150410 55 157 3.0 10.0 0.00 0.00 0.00 45 1022.7
20260503150311 55 15 3.0 10.0 0.00 0.00 0.00 47 1022.7
20260503150205 55 30 3.0 10.0 0.00 0.00 0.00 45 1022.6
20260503150104 55 24 3.0 10.0 0.00 0.00 0.00 45 1022.7